929 
ASUS46 KSEW 311310
RWRWA 

WASHINGTON REGIONAL WEATHER ROUNDUP
NATIONAL WEATHER SERVICE SEATTLE WA
600 AM PDT FRI JUL 31 2015

NOTE:"FAIR" INDICATES FEW OR NO CLOUDS BELOW 12,000 FEET WITH NO 
SIGNIFICANT WEATHER AND/OR OBSTRUCTIONS TO VISIBILITY.

WAZ505-507>509-311400-
SEATTLE, TACOMA, EVERETT, AND VICINITY
  
CITY           SKY/WX    TMP DP  RH WIND       PRES   REMARKS
EVERETT        CLEAR     64  45  49 N3        30.09R                  
BOEING FIELD   CLEAR     68  51  54 CALM      30.06S                  
RENTON         CLEAR     60  51  72 SE3       30.06S                  
SEATAC AIRPORT PTCLDY    64  49  57 N6        30.08R                  
JBLM-MCCHORD   CLEAR     52  47  84 S3        30.07R                  
PUYALLUP       FAIR      54  52  94 CALM      30.08R                  
BREMERTON      CLEAR     52  45  76 CALM      30.10R                  
JBLM-FT LEWIS  CLEAR     53  42  66 SE5       30.06S                  
TACOMA NARROWS CLEAR     60  50  69 CALM      30.08R                  
$$
 
WAZ001-503-506-510-514-515-311400-
NORTH INTERIOR
  
CITY           SKY/WX    TMP DP  RH WIND       PRES   REMARKS
BELLINGHAM     CLEAR     55  52  89 CALM      30.07R                  
FRIDAY HARBOR  CLEAR     52  49  89 CALM      30.08R                  
EASTSOUND      CLEAR     59  55  88 S3        30.06R                  
PORT ANGELES   CLEAR     52  49  89 CALM      30.09R                  
PORT TOWNSEND  FAIR      48  46  93 CALM      30.08R                  
NAS WHIDBEY    CLEAR     55  52  89 S6        30.11R                  
ARLINGTON      CLEAR     54  45  71 CALM      30.09S                  
BURLINGTON     CLEAR     57  50  77 CALM      30.07S                  
$$
 
WAZ020-022-039-040-504-511-512-311400-
SOUTHWEST INTERIOR
  
CITY           SKY/WX    TMP DP  RH WIND       PRES   REMARKS
SHELTON        CLEAR     51  47  86 CALM      30.06R                  
OLYMPIA        CLEAR     50  46  86 CALM      30.07S                  
CHEHALIS       FAIR      52  50  93 CALM      30.08R                  
KELSO          CLEAR     55  48  76 CALM      30.09S                  
VANCOUVER      CLEAR     61  47  59 CALM      30.03S                  
SCAPPOOSE, OR  CLEAR     58  50  75 W3        30.04R                  
PORTLAND, OR   PTCLDY    65  54  67 W6        30.04R                  
$$
 
WAZ021-516-517-311400-
WASHINGTON COAST
  
CITY           SKY/WX    TMP DP  RH WIND       PRES   REMARKS
FORKS          FOG       51  51 100 CALM      30.10R VSB 1/2          
HOQUIAM        CLOUDY    57  56  96 E3        30.08S FOG              
ASTORIA, OR    CLEAR     52  50  93 CALM      30.07S                  
$$
 
WAZ019-023-024-040-518-519-311400-
CASCADE MOUNTAINS AND COLUMBIA GORGE
  
CITY           SKY/WX    TMP DP  RH WIND       PRES   REMARKS
TROUTDALE, OR  CLEAR     60  53  77 E3        30.03R                  
THE DALLES, OR CLEAR     66  40  38 E8        30.00R                  
$$

WAZ026-027-041>044-520-521-311400-
EAST SLOPES
  
CITY           SKY/WX    TMP DP  RH WIND       PRES   REMARKS
OMAK           CLEAR     60  36  40 N6        30.07R                  
WENATCHEE      CLEAR     70  37  29 W12       30.05R                  
ELLENSBURG     CLEAR     56  42  59 NE3       30.09R                  
YAKIMA         CLEAR     58  45  62 W7        30.05S                  
$$

WAZ028-034-035-311400-
COLUMBIA BASIN
  
CITY           SKY/WX    TMP DP  RH WIND       PRES   REMARKS
EPHRATA        CLEAR     63  37  38 NE6       30.04R                  
MOSES LAKE     CLEAR     57  35  43 N6        30.04R                  
PASCO          CLEAR     55  49  80 CALM      30.00S                  
HERMISTON, OR  CLEAR     58  42  55 CALM      30.00R                  
$$

WAZ036>038-311400-
NORTHEAST WASHINGTON
  
CITY           SKY/WX    TMP DP  RH WIND       PRES   REMARKS
SPOKANE GEIGER PTCLDY    65  40  39 NE3       30.12R                  
SPOKANE FELTS  CLEAR     58  45  62 N5        30.12R                  
FAIRCHILD AFB  CLEAR     61  34  36 NE5       30.11S                  
COEURDALENE,ID CLEAR     61  43  51 E7        30.13R                  
DEER PARK      CLEAR     47  34  60 NW3       30.12R                  
$$

WAZ029>033-311400-
SOUTHEAST WASHINGTON
  
CITY           SKY/WX    TMP DP  RH WIND       PRES   REMARKS
PULLMAN        PTCLDY    64  35  34 E3        30.14R                  
LEWISTON, ID   MOCLDY    67  41  38 E3        30.08R                  
WALLA WALLA    PTCLDY    73  33  23 SE7       30.03R                  
PENDLETON, OR  CLEAR     67  32  27 SE7       30.05R                  
$$